Regional Weather Roundup
Issued by NWS

Home | Current Version | Previous Version | Graphics & Text | Print | Product List | Glossary On
Versions: 1 2 3 4 5 6 7 8 9 10 11 12 13 14 15 16 17 18 19 20 21 22 23 24 25 26 27 28 29 30 31 32 33 34 35 36 37 38 39 40 41 42 43 44 45 46 47 48 49 50
000
ASUS43 KOAX 291002
RWRNE

WEATHER ROUNDUP FOR NEBRASKA
NATIONAL WEATHER SERVICE OMAHA NE
500 AM CDT SUN MAY 29 2016

NOTES: SATELLITE DATA IS BEING USED TO AUGMENT CLOUD COVER ABOVE
       12000 FEET.
       "FAIR" INDICATES FEW OR NO CLOUDS BELOW 12,000 FEET WITH NO
       SIGNIFICANT WEATHER AND/OR OBSTRUCTIONS TO VISIBILITY.

  * THESE STATIONS DO NOT REPORT WEATHER SUCH AS RAIN...SNOW OR FOG.

NEZ001>004-019>022-054>056-291100-
NEBRASKA PANHANDLE

CITY           SKY/WX    TMP DP  RH WIND       PRES   REMARKS
SCOTTSBLUFF    CLEAR     47  44  90 E5        30.08S
ALLIANCE       CLEAR     39  38  96 CALM      30.08S
CHADRON        CLEAR     40  37  89 CALM      30.07S
SIDNEY         CLEAR     43  42  97 W3        30.11R
$$

NEZ057>060-069>072-079>082-291100-
SOUTHWEST NEBRASKA

CITY           SKY/WX    TMP DP  RH WIND       PRES   REMARKS
NORTH PLATTE   CLEAR     48  47  96 CALM      30.08R
IMPERIAL       CLEAR     51  49  92 NW3       30.08F
LEXINGTON      CLEAR     53  50  89 W5        30.05R
MCCOOK         PTCLDY    54  49  83 W5        30.06R
$$

NEZ005>010-023>029-035>040-094-291100-
NORTH CENTRAL NEBRASKA

CITY           SKY/WX    TMP DP  RH WIND       PRES   REMARKS
VALENTINE      CLEAR     49  46  90 SW6       30.05R
AINSWORTH      CLEAR     53  51  94 W5        30.04S
BROKEN BOW     CLEAR     52  50  93 CALM      30.04R
ORD            CLEAR     53  52  96 S6        30.02R
$$

NEZ041-046>049-061>064-073>077-083>087-291100-
SOUTH CENTRAL NEBRASKA

CITY           SKY/WX    TMP DP  RH WIND       PRES   REMARKS
GRAND ISLAND   CLEAR     57  55  93 CALM      30.04R
HASTINGS       PTCLDY    56  53  90 CALM      30.03R
KEARNEY *      CLOUDY    55  50  82 NW5       30.04R
YORK           CLEAR     57  55  94 CALM      30.02S
$$

NEZ011>018-030>034-042>045-291100-
NORTHEAST NEBRASKA

CITY           SKY/WX    TMP DP  RH WIND       PRES   REMARKS
NORFOLK        CLOUDY    55  53  93 CALM      30.01R
ALBION         CLOUDY    55  53  91 CALM      30.02R
BLAIR          CLEAR     55  53  95 SW5       30.01R
FREMONT        CLEAR     55  55  99 CALM      30.02R
TEKAMAH        CLEAR     53  51  93 CALM      30.00R
$$

NEZ050>053-065>068-078-088>093-291100-
SOUTHEAST NEBRASKA

CITY           SKY/WX    TMP DP  RH WIND       PRES   REMARKS
LINCOLN        PTCLDY    56  54  93 CALM      30.03R
OMAHA EPPLEY   CLEAR     57  53  86 SE3       30.01R
FALLS CITY     CLEAR     59  57  93 CALM      30.02R
$$

NEZ044-045-051>053-067-291100-
OMAHA AREA

CITY           SKY/WX    TMP DP  RH WIND       PRES   REMARKS
OMAHA EPPLEY   CLEAR     57  53  86 SE3       30.01R
BLAIR          CLEAR     55  53  95 SW5       30.01R
FREMONT        CLEAR     55  55  99 CALM      30.02R
OFFUTT AFB     PTCLDY    53  53 100 CALM      30.01R
$$



USA.gov is the U.S. government's official web portal to all federal, state and local government web resources and services.